Date String (YYYY-MM-DD hh:mm:ss) UTC,Instrument flags,Ambient pressure (hPa),Sample flow (lpm),Bypass flow (lpm),Sample temperature (°C),Ambient temperature (°C),ASC tube jacket temperature (°C),LED temperature (°C),Box temperature (°C),Sample RH (%),Span deviation,Mass concentration (μg/m³),Mass concentration (μg/m³),Mass concentration (μg/m³)
DateTimeUTC,F1_M11,P_M11,Q1_M11,Q2_M11,T1_M11,T2_M11,T3_M11,T4_M11,T5_M11,U1_M11,ZSPAN_M11,X0_M11,X2_M11,X1_M11
2021-10-14 08:00:00,,0821.7,5.01,0.00,23.2,22.5,00.0,32.1,25.0,16.1,0000.0,0011.83,0003.43,0002.36
2021-10-14 08:01:00,,0821.7,5.00,0.00,23.2,22.6,00.0,32.2,25.0,15.9,0000.0,0011.75,0003.45,0002.37
2021-10-14 08:02:00,,0821.7,5.01,0.00,23.2,22.6,00.0,32.2,25.0,15.3,0000.0,0011.90,0003.44,0002.38
2021-10-14 08:03:00,,0821.8,5.00,0.00,23.2,22.6,00.0,32.2,25.1,15.1,0000.0,0012.20,0003.41,0002.38
2021-10-14 08:04:00,,0821.8,4.99,0.00,23.2,22.6,00.0,32.2,25.1,14.6,0000.0,0011.84,0003.40,0002.39
2021-10-14 08:05:00,,0821.8,5.00,0.00,23.3,22.6,00.0,32.2,25.1,14.5,0000.0,0011.68,0003.39,0002.42
2021-10-14 08:06:00,,0821.8,5.00,0.00,23.3,22.7,00.0,32.2,25.1,14.3,0000.0,0010.71,0003.35,0002.44
2021-10-14 08:07:00,,0821.8,5.00,0.00,23.3,22.7,00.0,32.2,25.1,14.4,0000.0,0010.13,0003.33,0002.48
2021-10-14 08:08:00,,0821.9,5.00,0.00,23.3,22.7,00.0,32.3,25.1,14.3,0000.0,0009.78,0003.35,0002.51
2021-10-14 08:09:00,,0821.8,5.00,0.00,23.3,22.7,00.0,32.3,25.2,14.6,0000.0,0009.25,0003.33,0002.52
2021-10-14 08:10:00,,0821.8,5.00,0.00,23.4,22.7,00.0,32.3,25.2,14.3,0000.0,0009.33,0003.30,0002.52
2021-10-14 08:11:00,,0821.7,4.99,0.00,23.4,22.7,00.0,32.3,25.2,14.3,0000.0,0009.48,0003.30,0002.54
2021-10-14 08:12:00,,0821.8,5.01,0.00,23.4,22.7,00.0,32.3,25.2,14.6,0000.0,0009.07,0003.27,0002.54
2021-10-14 08:13:00,,0821.8,5.00,0.00,23.4,22.7,00.0,32.3,25.3,14.7,0000.0,0008.69,0003.28,0002.56
2021-10-14 08:14:00,,0821.8,5.00,0.00,23.4,22.8,00.0,32.4,25.3,14.9,0000.0,0008.87,0003.30,0002.57
2021-10-14 08:15:00,,0821.8,5.00,0.00,23.5,22.8,00.0,32.4,25.3,15.1,0000.0,0008.46,0003.29,0002.58
2021-10-14 08:16:00,,0821.8,5.01,0.00,23.5,22.8,00.0,32.4,25.3,15.2,0000.0,0008.67,0003.29,0002.57
2021-10-14 08:17:00,,0821.9,4.99,0.00,23.5,22.8,00.0,32.4,25.4,15.3,0000.0,0008.80,0003.27,0002.55
2021-10-14 08:18:00,,0821.9,5.01,0.00,23.5,22.8,00.0,32.5,25.4,15.3,0000.0,0008.81,0003.26,0002.53
2021-10-14 08:19:00,,0822.0,5.01,0.00,23.5,22.8,00.0,32.5,25.4,15.3,0000.0,0008.95,0003.27,0002.51
2021-10-14 08:20:00,,0821.9,5.00,0.00,23.6,22.8,00.0,32.5,25.4,15.1,0000.0,0009.14,0003.32,0002.52
2021-10-14 08:21:00,,0822.2,4.99,0.00,23.6,22.9,00.0,32.5,25.4,15.2,0000.0,0008.70,0003.31,0002.50
2021-10-14 08:22:00,,0822.0,4.99,0.00,23.6,22.9,00.0,32.5,25.4,15.4,0000.0,0008.37,0003.30,0002.49
2021-10-14 08:23:00,,0821.9,5.00,0.00,23.6,22.9,00.0,32.5,25.5,15.4,0000.0,0008.72,0003.28,0002.49
2021-10-14 08:24:00,,0821.9,4.99,0.00,23.6,22.9,00.0,32.6,25.5,15.5,0000.0,0008.60,0003.28,0002.49
2021-10-14 08:25:00,,0822.1,5.00,0.00,23.6,22.9,00.0,32.6,25.5,15.6,0000.0,0008.11,0003.33,0002.48
2021-10-14 08:26:00,,0821.8,5.02,0.00,23.6,22.9,00.0,32.6,25.5,15.7,0000.0,0008.24,0003.36,0002.46
2021-10-14 08:27:00,,0821.9,4.99,0.00,23.6,22.9,00.0,32.6,25.5,15.7,0000.0,0008.13,0003.38,0002.47
2021-10-14 08:28:00,,0821.9,5.00,0.00,23.6,22.9,00.0,32.6,25.5,15.8,0000.0,0008.07,0003.42,0002.47
2021-10-14 08:29:00,,0821.8,5.00,0.00,23.7,22.9,00.0,32.6,25.5,15.8,0000.0,0008.13,0003.40,0002.47
2021-10-14 08:30:00,,0821.8,5.00,0.00,23.6,22.9,00.0,32.6,25.5,15.9,0000.0,0008.21,0003.38,0002.46
2021-10-14 08:31:00,,0821.8,5.00,0.00,23.7,22.9,00.0,32.6,25.5,16.0,0000.0,0008.40,0003.38,0002.45
2021-10-14 08:32:00,,0821.8,5.01,0.00,23.7,23.0,00.0,32.7,25.5,16.0,0000.0,0008.36,0003.37,0002.44
2021-10-14 08:33:00,,0821.8,4.99,0.00,23.7,23.0,00.0,32.7,25.5,16.0,0000.0,0008.25,0003.36,0002.42
2021-10-14 08:34:00,,0821.9,5.00,0.00,23.7,23.0,00.0,32.7,25.6,15.9,0000.0,0008.24,0003.36,0002.37
2021-10-14 08:35:00,,0821.9,5.01,0.00,23.7,23.0,00.0,32.7,25.6,16.0,0000.0,0008.17,0003.34,0002.34
2021-10-14 08:36:00,,0821.8,5.00,0.00,23.7,23.0,00.0,32.7,25.6,16.0,0000.0,0008.13,0003.34,0002.32
2021-10-14 08:37:00,,0821.9,4.99,0.00,23.7,23.0,00.0,32.7,25.6,16.0,0000.0,0008.18,0003.33,0002.30
2021-10-14 08:38:00,,0822.2,5.01,0.00,23.8,23.0,00.0,32.8,25.6,16.0,0000.0,0008.82,0003.31,0002.28
2021-10-14 08:39:00,,0821.9,4.99,0.00,23.8,23.0,00.0,32.8,25.6,16.0,0000.0,0009.02,0003.29,0002.26
2021-10-14 08:40:00,,0822.0,5.00,0.00,23.8,23.0,00.0,32.8,25.6,16.0,0000.0,0009.24,0003.30,0002.22
2021-10-14 08:41:00,,0821.9,5.00,0.00,23.8,23.0,00.0,32.8,25.6,16.0,0000.0,0009.00,0003.34,0002.21
2021-10-14 08:42:00,,0822.2,5.01,0.00,23.8,23.0,00.0,32.8,25.6,15.9,0000.0,0008.69,0003.30,0002.18
2021-10-14 08:43:00,,0822.1,4.98,0.00,23.8,23.0,00.0,32.8,25.6,15.9,0000.0,0009.03,0003.34,0002.18
2021-10-14 08:44:00,,0822.2,5.00,0.00,23.8,23.0,00.0,32.8,25.6,16.0,0000.0,0009.05,0003.36,0002.19
2021-10-14 08:45:00,,0821.9,5.01,0.00,23.8,23.0,00.0,32.8,25.6,16.0,0000.0,0009.38,0003.38,0002.20
2021-10-14 08:46:00,,0822.2,4.99,0.00,23.8,23.0,00.0,32.9,25.6,16.0,0000.0,0009.54,0003.40,0002.23
2021-10-14 08:47:00,,0821.9,5.00,0.00,23.8,23.0,00.0,32.9,25.6,16.0,0000.0,0009.39,0003.36,0002.24
2021-10-14 08:48:00,,0821.9,5.01,0.00,23.8,23.0,00.0,32.9,25.7,16.0,0000.0,0009.21,0003.34,0002.25
2021-10-14 08:49:00,,0821.9,5.01,0.00,23.8,23.0,00.0,32.9,25.7,15.9,0000.0,0009.12,0003.34,0002.26
2021-10-14 08:50:00,,0822.0,4.99,0.00,23.8,23.0,00.0,32.9,25.7,15.8,0000.0,0009.04,0003.34,0002.26
2021-10-14 08:51:00,,0822.0,5.00,0.00,23.9,23.0,00.0,32.9,25.7,15.7,0000.0,0009.23,0003.31,0002.28
2021-10-14 08:52:00,,0822.0,4.99,0.00,23.9,23.0,00.0,32.9,25.7,15.6,0000.0,0009.23,0003.25,0002.31
2021-10-14 08:53:00,,0822.0,5.00,0.00,23.9,23.0,00.0,32.9,25.7,15.5,0000.0,0009.38,0003.24,0002.33
2021-10-14 08:54:00,,0822.0,4.99,0.00,23.9,23.0,00.0,32.9,25.7,15.4,0000.0,0009.15,0003.23,0002.36
2021-10-14 08:55:00,,0822.0,5.00,0.00,23.9,23.0,00.0,32.9,25.7,15.3,0000.0,0008.99,0003.21,0002.38
2021-10-14 08:56:00,,0822.1,5.01,0.00,23.9,23.0,00.0,32.9,25.7,15.5,0000.0,0008.39,0003.20,0002.39
2021-10-14 08:57:00,,0822.1,5.01,0.00,23.9,23.0,00.0,32.9,25.7,15.5,0000.0,0008.61,0003.19,0002.39
2021-10-14 08:58:00,,0822.1,4.98,0.00,23.9,23.0,00.0,32.9,25.6,15.5,0000.0,0009.14,0003.20,0002.40
2021-10-14 08:59:00,,0822.1,5.00,0.00,23.9,23.0,00.0,32.9,25.7,15.5,0000.0,0009.20,0003.21,0002.41
